Location: Fort Wayne
(41.1310°N, 85.1290°W)
Time: 14:43:15
(UTC-04:00)

Daily predictions for brighter satellites

Satellite Brightness Start Highest point End
(mag) Time Altitude Azimuth Time Altitude Azimuth Time Altitude Azimuth
Cosmos 2227 Rocket 2.5 20:37:20 10° NNW 20:42:52 52° ENE 20:48:22 10° SE
NOSS 2-1 (C) 4.1 20:39:36 10° SW 20:43:24 60° NW 20:47:47 10° NNE
Cosmos 1821 Rocket 3.9 20:37:53 10° S 20:43:57 73° E 20:50:02 10° N
Helios 1A 3.2 20:40:14 10° S 20:44:23 79° WSW 20:48:36 10° NNW
Cosmos 1605 Rocket 4.3 20:41:11 10° SSE 20:47:08 45° E 20:53:03 10° NNE
EP 1 4.1 20:48:30 10° SSW 20:51:05 65° ESE 20:53:41 10° NE
Lacrosse 5 3.2 20:47:37 10° NNW 20:52:00 28° NNE 20:56:21 10° E
ERS-1 Rocket 4.3 20:49:06 10° ESE 20:52:53 22° ENE 20:56:42 10° NNE
Cosmos 1461 2.8 20:51:13 10° NNW 20:55:18 73° ENE 20:59:14 10° SE
DELTA 2 R/B (1) 3.7 20:50:35 10° W 20:56:09 72° S 21:01:39 10° ESE
Cosmos 1346 Rocket 2.7 20:53:02 10° N 20:56:59 69° E 21:00:57 10° SSE
Cosmos 2082 3.8 20:52:23 10° NNW 20:57:59 64° ENE 21:03:33 10° SE
Cosmos 2297 Rocket 2.5 20:52:39 10° NNW 20:58:10 50° ENE 21:03:37 10° SE
Meteor 1-5 Rocket 4.1 20:53:07 10° S 20:58:27 80° E 21:03:57 10° NNE
Cosmos 1025 Rocket 4.3 20:57:15 10° NNW 21:01:25 44° W 21:05:30 10° SSW
Meteor 2-15 4.4 20:55:37 10° N 21:01:42 85° E 21:07:45 10° S
Cosmos 1898 Rocket 4.4 20:58:40 10° N 21:03:24 32° ENE 21:07:49 11° ESE
H-2A R/B 4.0 21:03:49 10° E 21:05:36 13° ENE 21:07:23 10° NE
Meteor 2-15 Rocket 4.4 21:01:46 10° N 21:07:52 82° E 21:13:56 10° S
Cosmos 1626 Rocket 3.9 21:03:56 10° N 21:08:09 44° ENE 21:12:18 10° SSE
Cosmos 1892 Rocket 4.2 21:04:11 10° NNW 21:08:37 62° W 21:13:01 10° S
Cosmos 1455 Rocket 3.1 21:08:08 10° S 21:12:27 82° W 21:16:50 10° N
Cosmos 1515 4.5 21:10:10 10° N 21:13:41 33° ENE 21:16:39 13° SE
Cosmos 2123 Rocket 4.0 21:10:39 10° N 21:16:52 89° WSW 21:23:02 10° S
Cosmos 1602 Rocket 3.7 21:13:06 10° N 21:17:30 56° E 21:21:50 10° SSE
RESURS DK-1 3.7 21:14:54 10° N 21:18:18 24° NE 21:20:28 16° E
Cosmos 468 Rocket 4.4 21:14:22 10° SSE 21:19:03 37° ESE 21:23:45 10° NE
Cosmos 2084 3.9 21:17:14 10° NNW 21:21:08 44° NE 21:23:56 18° ESE
CZ-4 DEB 3.5 21:22:57 20° SE 21:24:33 34° ENE 21:27:26 10° N
Cosmos 1743 4.0 21:26:39 20° ESE 21:27:47 23° E 21:30:53 10° NE
Cosmos 1459 Rocket 4.5 21:22:37 10° SSE 21:28:04 37° E 21:33:34 10° NNE
Cosmos 220 Rocket 3.8 21:24:09 10° NNW 21:28:22 76° ENE 21:31:56 14° SSE
Cosmos 1814 Rocket 4.4 21:24:33 10° S 21:29:30 40° ESE 21:34:25 10° NE
SL-24 R/B - RUBIN 2 4.3 21:26:07 10° SSW 21:31:55 76° ESE 21:38:25 10° NE
Cosmos 1066 Rocket 4.4 21:28:04 10° N 21:33:36 53° ENE 21:38:15 15° SSE
Cosmos 1697 Rocket 2.8 21:29:08 10° S 21:34:36 54° ESE 21:40:05 10° NNE
OAO 2 Rocket 3.9 21:31:07 10° WSW 21:35:49 41° S 21:38:28 23° ESE
Resurs 01 Rocket 4.4 21:40:31 10° SW 21:43:37 19° W 21:46:45 10° NW
Cosmos 1153 Rocket 4.5 21:40:26 10° S 21:46:37 90° W 21:52:48 10° N
ALOS 3.7 21:44:14 10° SSW 21:48:33 38° W 21:52:55 10° NNW
Cosmos 1606 Rocket 4.2 21:50:20 31° ESE 21:51:06 34° E 21:55:06 10° NNE
H-2A R/B 4.4 21:48:10 10° SSW 21:51:43 34° W 21:55:21 10° NNW
ASTEX 1 4.2 21:47:31 10° NNE 21:51:55 30° E 21:52:41 29° ESE
Cosmos 1975 3.5 21:48:15 10° SSW 21:52:17 57° W 21:56:20 10° N
ARGOS 4.4 21:53:32 21° E 21:54:47 23° ENE 21:58:56 10° NNE
USA 186 3.8 21:53:40 10° SSW 21:56:19 25° W 21:58:50 10° NW
Cosmos 1980 Rocket 2.3 21:52:12 10° S 21:57:38 50° ESE 22:03:08 10° NE
Lacrosse 5 rocket 2.4 21:56:56 10° WNW 22:00:14 31° SW 22:01:42 23° S
Cosmos 2298 Rocket 4.1 21:55:15 10° NNW 22:00:34 76° WSW 22:04:08 21° S
Cosmos 1802 Rocket 4.1 21:55:57 11° S 22:02:00 60° E 22:08:19 10° NNE
Envisat 2.9 22:00:25 27° SSE 22:03:12 75° ENE 22:08:17 10° N
OTV 4 2.9 22:04:17 10° WSW 22:05:33 14° SW 22:05:33 14° SW
Iridium 4 Rocket 4.0 22:01:42 10° N 22:06:38 55° W 22:11:07 10° SSW
Cosmos 1937 Rocket 3.4 22:01:34 10° NNW 22:06:53 81° ENE 22:09:16 34° SSE
MetOp-B 4.5 22:07:39 36° ESE 22:09:16 47° ENE 22:14:23 10° N
Cosmos 1726 Rocket 3.6 22:14:23 51° E 22:14:30 51° E 22:18:47 10° NNE
Cosmos 1666 4.2 22:16:27 24° NE 22:16:27 24° NE 22:18:20 10° NNE
Cosmos 2016 Rocket 3.9 22:11:10 24° SSE 22:14:54 63° E 22:21:01 10° NNE
H-2A R/B 3.6 22:17:51 18° ENE 22:17:51 18° ENE 22:20:56 10° NNE
Cosmos 990 Rocket 3.9 22:14:06 10° NNW 22:19:22 77° ENE 22:20:53 47° SE
Tiangong 1 1.8 22:16:56 10° WNW 22:19:22 51° WNW 22:19:22 51° WNW
Cosmos 2263 Rocket 3.7 22:20:42 10° N 22:24:45 20° NE 22:25:29 20° ENE
Cosmos 2227 Rocket 4.3 22:22:17 10° NW 22:26:29 22° W 22:30:41 10° SSW
Cosmos 2173 Rocket 4.1 22:20:58 10° SSW 22:27:20 77° W 22:33:41 10° N
Cosmos 1939 Rocket 3.7 22:25:54 32° SSW 22:27:27 50° W 22:31:31 10° NNW
Cosmos 1825 Rocket 3.6 22:24:14 10° NNW 22:28:39 74° W 22:29:39 52° SSW
Cosmos 2322 Rocket 3.4 22:32:37 26° ENE 22:32:37 26° ENE 22:35:34 10° NE
ERS-1 Rocket 3.9 22:28:09 20° SSW 22:31:21 45° W 22:36:10 10° NNW
Cosmos 2098 Rocket 4.0 22:29:39 35° SSE 22:32:37 66° E 22:38:25 10° NNE
Meteor 1-21 4.2 22:28:03 10° N 22:33:51 85° W 22:35:57 42° S
BREEZE-M DEB (TANK) 4.4 22:30:08 10° NW 22:34:19 72° NNE 22:39:15 33° ESE
Lacrosse 5 1.9 22:30:18 10° NW 22:35:19 65° SW 22:36:04 56° S
SPOT 1/Viking Rocket 3.6 22:36:07 55° E 22:36:29 56° ENE 22:41:34 10° N
Cosmos 1340 3.0 22:33:12 10° NNW 22:36:49 63° W 22:36:49 63° W
YAOGAN 6 3.3 22:38:50 51° N 22:38:50 51° N 22:41:43 10° N
Cosmos 1953 Rocket 3.5 22:34:30 10° N 22:38:58 79° W 22:39:18 73° SW
SPOT 5 2.9 22:39:47 56° S 22:40:47 77° WSW 22:45:39 10° NNW
H-2A R/B 2.3 22:40:47 55° WSW 22:41:06 57° WSW 22:45:11 10° NNW
Cosmos 967 Rocket 4.4 22:35:13 10° NNW 22:41:36 90° NNE 22:43:06 55° SSE
Cosmos 2297 Rocket 4.2 22:37:29 10° NW 22:41:49 23° W 22:46:07 10° SSW
Cosmos 2360 4.1 22:38:32 25° SSW 22:42:00 83° ESE 22:47:45 10° NNE
Meteor 2-9 Rocket 4.0 22:41:32 65° SE 22:42:08 71° E 22:47:32 10° NNE
DELTA 2 R/B (1) 4.3 22:37:09 10° W 22:42:13 37° SSW 22:42:25 37° SSW
Cosmos 1864 Rocket 4.3 22:41:44 55° SSE 22:42:58 69° E 22:49:04 10° NNE
USA 245 4.4 22:41:37 55° SE 22:43:01 74° ENE 22:49:22 10° N
Cosmos 1763 Rocket 3.5 22:41:43 24° SSW 22:44:50 74° WNW 22:49:56 10° NNE
Cosmos 2227 4.2 22:43:23 10° NNW 22:49:09 81° WSW 22:50:02 64° S
Tsikada Rocket 3.9 22:43:48 10° N 22:50:15 76° E 22:51:23 61° SE
Cosmos 1125 Rocket 3.6 22:46:43 10° NNW 22:51:36 59° NE 22:51:36 59° NE
Cosmos 2228 4.2 22:54:37 35° NNE 22:54:37 35° NNE 22:57:09 10° NNE
MetOp-A 4.4 22:54:40 53° SSW 22:55:41 64° W 23:01:01 10° NNW
RESURS DK-1 3.9 22:52:43 10° NW 22:56:22 30° WSW 22:56:25 30° WSW
Cosmos 1758 Rocket 4.1 22:53:26 10° NNW 22:57:28 55° W 22:57:28 55° W
USA 215 3.7 23:03:14 42° ENE 23:04:50 51° NNE 23:11:07 10° NW
Cosmos 841 Rocket 4.1 23:04:54 28° SW 23:07:27 53° WNW 23:12:34 10° N
Terra 3.1 23:11:26 32° NNE 23:11:26 32° NNE 23:14:22 10° N
Cosmos 1816 Rocket 4.3 23:05:27 10° N 23:11:51 87° E 23:12:13 81° SSE
BREEZE-M DEB (TANK) 4.1 23:10:19 10° WNW 23:11:27 27° WNW 23:11:27 27° WNW
Cosmos 1725 Rocket 4.2 23:12:55 48° SW 23:14:35 67° W 23:20:49 10° N
SL-19 R/B 4.4 23:12:37 10° N 23:18:01 63° WNW 23:18:29 60° W
Meteor 2-17 Rocket 4.3 23:20:18 81° NNE 23:20:18 81° NNE 23:26:03 10° N
Milstar 3 Cent rocket 4.4 23:04:42 10° W 23:20:40 38° SSW 23:22:31 36° S
Cosmos 2058 Rocket 4.4 23:22:16 37° WNW 23:22:16 37° WNW 23:26:22 10° N
SL-16 R/B 2.7 23:28:05 55° NNE 23:28:05 55° NNE 23:32:29 10° NNE
ARGOS 3.9 23:35:03 47° W 23:35:03 47° W 23:39:53 10° NNW
BREEZE-M DEB (TANK) 3.7 23:30:14 10° W 23:38:01 53° NW 23:38:01 53° NW
Cosmos 2233 Rocket 4.1 23:39:50 68° WNW 23:39:50 68° WNW 23:45:53 10° N
Cosmos 1980 Rocket 4.2 23:37:17 10° WSW 23:41:56 25° NW 23:46:37 10° N
Cosmos 2360 Rocket 4.1 23:45:50 19° NE 23:45:50 19° NE 23:47:28 10° NNE
